﻿_id,日時,平均風速(m/s),平均風向,最大瞬間風速(m/s),最大風速時風向,気温(℃),湿度(%),10分間移動積算雨量(mm),1時間移動積算雨量(mm),日雨量(mm),累計雨量(mm),日射(日積算)(MJ/m2),日照(日積算)(min),現地気圧(hPa),海面気圧(hPa)
1,2020-10-19T00:00:00,0.4,西北西,1.1,北西,11.4,95.9,0,0,0,0,10.19,219,1009.3,1023.4
2,2020-10-19T00:01:00,0.4,北西,0.9,西,11.5,95.9,0,0,0,0,0,0,1009.3,1023.4
3,2020-10-19T00:02:00,0.3,北西,0.7,西,11.5,96.1,0,0,0,0,0,0,1009.3,1023.4
4,2020-10-19T00:03:00,0.3,北北西,0.7,西,11.5,96.1,0,0,0,0,0,0,1009.3,1023.4
5,2020-10-19T00:04:00,0.3,北北西,0.7,西,11.6,96.2,0,0,0,0,0,0,1009.3,1023.4
6,2020-10-19T00:05:00,0.3,北,0.7,西,11.6,96.2,0,0,0,0,0,0,1009.3,1023.4
7,2020-10-19T00:06:00,0.3,北,0.7,西,11.5,96,0,0,0,0,0,0,1009.3,1023.4
8,2020-10-19T00:07:00,0.3,北北東,0.6,北東,11.5,96.1,0,0,0,0,0,0,1009.3,1023.4
9,2020-10-19T00:08:00,0.2,静穏,0.6,北東,11.5,96,0,0,0,0,0,0,1009.3,1023.4
10,2020-10-19T00:09:00,0.2,静穏,0.6,北東,11.5,95.9,0,0,0,0,0,0,1009.3,1023.4
11,2020-10-19T00:10:00,0.2,静穏,0.6,北東,11.5,95.9,0,0,0,0,0,0,1009.3,1023.4
12,2020-10-19T00:11:00,0.3,北東,1.1,東北東,11.6,96.1,0,0,0,0,0,0,1009.3,1023.4
13,2020-10-19T00:12:00,0.3,東北東,1.1,東北東,11.6,96.2,0,0,0,0,0,0,1009.3,1023.4
14,2020-10-19T00:13:00,0.3,東北東,1.1,東北東,11.6,96.1,0,0,0,0,0,0,1009.2,1023.3
15,2020-10-19T00:14:00,0.4,東北東,1.1,東北東,11.6,96.1,0,0,0,0,0,0,1009.3,1023.4
16,2020-10-19T00:15:00,0.4,東北東,1.1,東北東,11.6,96.2,0,0,0,0,0,0,1009.3,1023.4
17,2020-10-19T00:16:00,0.4,東北東,1.1,東北東,11.6,96,0,0,0,0,0,0,1009.3,1023.4
18,2020-10-19T00:17:00,0.4,東北東,1.1,東北東,11.6,96,0,0,0,0,0,0,1009.2,1023.3
19,2020-10-19T00:18:00,0.5,東北東,1.1,東北東,11.5,95.9,0,0,0,0,0,0,1009.2,1023.3
20,2020-10-19T00:19:00,0.5,東北東,1.1,東北東,11.5,95.9,0,0,0,0,0,0,1009.3,1023.4
21,2020-10-19T00:20:00,0.5,北東,1.1,東北東,11.6,96,0,0,0,0,0,0,1009.3,1023.4
22,2020-10-19T00:21:00,0.5,北東,1,東北東,11.6,96.1,0,0,0,0,0,0,1009.3,1023.4
23,2020-10-19T00:22:00,0.5,北東,0.9,北北東,11.5,95.9,0,0,0,0,0,0,1009.3,1023.4
24,2020-10-19T00:23:00,0.5,北北東,0.9,北北東,11.5,95.8,0,0,0,0,0,0,1009.3,1023.4
25,2020-10-19T00:24:00,0.4,北北東,1.1,北,11.5,95.8,0,0,0,0,0,0,1009.3,1023.4
26,2020-10-19T00:25:00,0.5,北北東,1.1,北,11.5,95.8,0,0,0,0,0,0,1009.3,1023.4
27,2020-10-19T00:26:00,0.4,北北東,1.1,北,11.5,95.8,0,0,0,0,0,0,1009.3,1023.4
28,2020-10-19T00:27:00,0.4,北北東,1.1,北,11.5,95.7,0,0,0,0,0,0,1009.3,1023.4
29,2020-10-19T00:28:00,0.4,北北東,1.1,北,11.5,95.8,0,0,0,0,0,0,1009.3,1023.4
30,2020-10-19T00:29:00,0.4,北北東,1.1,北,11.5,95.8,0,0,0,0,0,0,1009.3,1023.4
31,2020-10-19T00:30:00,0.3,北北東,1.1,北,11.4,95.8,0,0,0,0,0,0,1009.3,1023.4
32,2020-10-19T00:31:00,0.2,静穏,1.1,北,11.5,95.8,0,0,0,0,0,0,1009.3,1023.4
33,2020-10-19T00:32:00,0.2,静穏,1.1,北,11.4,95.7,0,0,0,0,0,0,1009.4,1023.5
34,2020-10-19T00:33:00,0.2,静穏,1.1,北,11.4,95.8,0,0,0,0,0,0,1009.3,1023.4
35,2020-10-19T00:34:00,0.2,静穏,1,北北東,11.4,95.8,0,0,0,0,0,0,1009.4,1023.5
36,2020-10-19T00:35:00,0.2,静穏,0.9,北北東,11.4,95.8,0,0,0,0,0,0,1009.4,1023.5
37,2020-10-19T00:36:00,0.1,静穏,0.9,北北東,11.4,95.9,0,0,0,0,0,0,1009.3,1023.4
38,2020-10-19T00:37:00,0.1,静穏,0.5,北北東,11.5,95.9,0,0,0,0,0,0,1009.3,1023.4
39,2020-10-19T00:38:00,0.1,静穏,0.5,北北東,11.5,96,0,0,0,0,0,0,1009.3,1023.4
40,2020-10-19T00:39:00,0.1,静穏,0.5,北北東,11.5,96.1,0,0,0,0,0,0,1009.3,1023.4
41,2020-10-19T00:40:00,0.1,静穏,0.5,北北東,11.5,96.1,0,0,0,0,0,0,1009.3,1023.4
42,2020-10-19T00:41:00,0.2,静穏,0.5,北北東,11.5,96,0,0,0,0,0,0,1009.3,1023.4
43,2020-10-19T00:42:00,0.2,静穏,0.5,北北東,11.4,95.9,0,0,0,0,0,0,1009.3,1023.4
44,2020-10-19T00:43:00,0.2,静穏,0.4,北西,11.4,95.9,0,0,0,0,0,0,1009.3,1023.4
45,2020-10-19T00:44:00,0.2,静穏,0.9,西,11.4,95.9,0,0,0,0,0,0,1009.3,1023.4
46,2020-10-19T00:45:00,0.2,静穏,1,西,11.3,95.8,0,0,0,0,0,0,1009.3,1023.4
47,2020-10-19T00:46:00,0.3,北西,1,西,11.3,95.7,0,0,0,0,0,0,1009.3,1023.4
48,2020-10-19T00:47:00,0.4,西北西,1,西,11.2,95.7,0,0,0,0,0,0,1009.3,1023.4
49,2020-10-19T00:48:00,0.4,西北西,1,西,11.2,95.7,0,0,0,0,0,0,1009.3,1023.4
50,2020-10-19T00:49:00,0.4,西北西,1,西,11.2,95.8,0,0,0,0,0,0,1009.3,1023.4
51,2020-10-19T00:50:00,0.5,西北西,1,西,11.3,96,0,0,0,0,0,0,1009.3,1023.4
52,2020-10-19T00:51:00,0.5,西,1,西,11.2,95.9,0,0,0,0,0,0,1009.3,1023.4
53,2020-10-19T00:52:00,0.6,西,1,西,11.1,95.8,0,0,0,0,0,0,1009.3,1023.4
54,2020-10-19T00:53:00,0.6,西,1,西,11,95.8,0,0,0,0,0,0,1009.4,1023.5
55,2020-10-19T00:54:00,0.6,西,1,西,11.1,95.7,0,0,0,0,0,0,1009.4,1023.5
56,2020-10-19T00:55:00,0.6,西,1,西南西,11,95.9,0,0,0,0,0,0,1009.4,1023.5
57,2020-10-19T00:56:00,0.6,西,1,西南西,11.1,96,0,0,0,0,0,0,1009.4,1023.5
58,2020-10-19T00:57:00,0.5,西北西,1,西南西,11.1,96.1,0,0,0,0,0,0,1009.4,1023.5
59,2020-10-19T00:58:00,0.4,西北西,1,西南西,11.2,96.1,0,0,0,0,0,0,1009.4,1023.5
60,2020-10-19T00:59:00,0.4,西北西,0.9,西,11.1,96.1,0,0,0,0,0,0,1009.4,1023.5
61,2020-10-19T01:00:00,0.3,北西,0.9,西,11.2,96.1,0,0,0,0,0,0,1009.4,1023.5
62,2020-10-19T01:01:00,0.2,静穏,0.9,西,11.3,96.3,0,0,0,0,0,0,1009.4,1023.5
63,2020-10-19T01:02:00,0.2,静穏,0.7,西,11.3,96.3,0,0,0,0,0,0,1009.4,1023.5
64,2020-10-19T01:03:00,0.1,静穏,0.5,北西,11.3,96.3,0,0,0,0,0,0,1009.4,1023.5
65,2020-10-19T01:04:00,0.1,静穏,0.5,北西,11.2,96.2,0,0,0,0,0,0,1009.4,1023.5
66,2020-10-19T01:05:00,0.1,静穏,0.5,北西,11.3,96.2,0,0,0,0,0,0,1009.3,1023.4
67,2020-10-19T01:06:00,0.1,静穏,0.5,北西,11.2,96,0,0,0,0,0,0,1009.3,1023.4
68,2020-10-19T01:07:00,0.1,静穏,0.6,北西,11.2,95.8,0,0,0,0,0,0,1009.4,1023.5
69,2020-10-19T01:08:00,0.1,静穏,0.7,西北西,11.1,95.8,0,0,0,0,0,0,1009.4,1023.5
70,2020-10-19T01:09:00,0.2,静穏,0.8,西北西,11,95.7,0,0,0,0,0,0,1009.4,1023.5
71,2020-10-19T01:10:00,0.3,北西,0.8,西北西,11,95.6,0,0,0,0,0,0,1009.4,1023.5
72,2020-10-19T01:11:00,0.3,北西,0.9,西北西,11.1,95.7,0,0,0,0,0,0,1009.4,1023.5
73,2020-10-19T01:12:00,0.4,西北西,0.9,西北西,11,95.7,0,0,0,0,0,0,1009.5,1023.6
74,2020-10-19T01:13:00,0.4,西北西,0.9,西北西,11,95.7,0,0,0,0,0,0,1009.4,1023.5
75,2020-10-19T01:14:00,0.5,西北西,0.9,西北西,11.1,95.8,0,0,0,0,0,0,1009.5,1023.6
76,2020-10-19T01:15:00,0.6,西北西,0.9,西北西,11.1,95.8,0,0,0,0,0,0,1009.5,1023.6
77,2020-10-19T01:16:00,0.6,西北西,0.9,西北西,11.1,95.7,0,0,0,0,0,0,1009.5,1023.6
78,2020-10-19T01:17:00,0.7,西北西,0.9,西北西,11.1,95.8,0,0,0,0,0,0,1009.6,1023.7
79,2020-10-19T01:18:00,0.7,西北西,0.9,西北西,11.1,95.7,0,0,0,0,0,0,1009.5,1023.6
80,2020-10-19T01:19:00,0.7,西北西,0.9,西北西,11.1,95.8,0,0,0,0,0,0,1009.5,1023.6
81,2020-10-19T01:20:00,0.6,西北西,0.9,西北西,11,95.7,0,0,0,0,0,0,1009.5,1023.6
82,2020-10-19T01:21:00,0.6,西北西,0.9,西北西,11,95.7,0,0,0,0,0,0,1009.5,1023.6
83,2020-10-19T01:22:00,0.5,西北西,0.9,西北西,11.1,95.7,0,0,0,0,0,0,1009.5,1023.6
84,2020-10-19T01:23:00,0.5,西北西,0.9,西北西,11.1,95.8,0,0,0,0,0,0,1009.5,1023.6
85,2020-10-19T01:24:00,0.4,西北西,0.9,西北西,11.1,95.8,0,0,0,0,0,0,1009.5,1023.6
86,2020-10-19T01:25:00,0.3,西北西,0.8,西北西,11.1,95.7,0,0,0,0,0,0,1009.5,1023.6
87,2020-10-19T01:26:00,0.3,西北西,0.8,西北西,11.1,95.9,0,0,0,0,0,0,1009.6,1023.7
88,2020-10-19T01:27:00,0.3,西北西,0.8,西北西,11.1,95.9,0,0,0,0,0,0,1009.6,1023.7
89,2020-10-19T01:28:00,0.3,西北西,0.8,西北西,11,95.8,0,0,0,0,0,0,1009.6,1023.7
90,2020-10-19T01:29:00,0.3,西北西,0.8,西北西,11.1,95.9,0,0,0,0,0,0,1009.6,1023.7
91,2020-10-19T01:30:00,0.3,西北西,0.8,西北西,11.1,96.1,0,0,0,0,0,0,1009.6,1023.7
92,2020-10-19T01:31:00,0.4,西北西,0.8,西北西,11.1,95.9,0,0,0,0,0,0,1009.7,1023.8
93,2020-10-19T01:32:00,0.4,西北西,0.8,西北西,11.1,96,0,0,0,0,0,0,1009.7,1023.8
94,2020-10-19T01:33:00,0.4,西北西,0.8,西北西,11.2,96.1,0,0,0,0,0,0,1009.7,1023.8
95,2020-10-19T01:34:00,0.4,西北西,0.8,西北西,11.1,96.3,0,0,0,0,0,0,1009.7,1023.8
96,2020-10-19T01:35:00,0.4,西北西,0.8,西北西,11.1,96,0,0,0,0,0,0,1009.8,1023.9
97,2020-10-19T01:36:00,0.4,西北西,0.8,西北西,11.1,96,0,0,0,0,0,0,1009.8,1023.9
98,2020-10-19T01:37:00,0.4,西北西,0.8,西南西,11.1,96,0,0,0,0,0,0,1009.8,1023.9
99,2020-10-19T01:38:00,0.3,西北西,0.8,西南西,11.2,96.1,0,0,0,0,0,0,1009.8,1023.9
100,2020-10-19T01:39:00,0.3,北西,0.8,西南西,11.2,96.2,0,0,0,0,0,0,1009.8,1023.9
101,2020-10-19T01:40:00,0.3,北西,0.8,西北西,11.1,96.1,0,0,0,0,0,0,1009.8,1023.9
102,2020-10-19T01:41:00,0.4,北西,0.9,西北西,11.1,96,0,0,0,0,0,0,1009.8,1023.9
103,2020-10-19T01:42:00,0.4,北西,0.9,西北西,11.1,96,0,0,0,0,0,0,1009.8,1023.9
104,2020-10-19T01:43:00,0.4,西北西,0.9,西北西,11.1,96,0,0,0,0,0,0,1009.8,1023.9
105,2020-10-19T01:44:00,0.4,西北西,0.9,西北西,11.1,96.1,0,0,0,0,0,0,1009.8,1023.9
106,2020-10-19T01:45:00,0.4,西北西,0.9,西北西,11.1,96,0,0,0,0,0,0,1009.8,1023.9
107,2020-10-19T01:46:00,0.5,西北西,0.9,西北西,11.1,96,0,0,0,0,0,0,1009.8,1023.9
108,2020-10-19T01:47:00,0.5,西北西,0.9,西北西,11.1,96,0,0,0,0,0,0,1009.8,1023.9
109,2020-10-19T01:48:00,0.5,西北西,0.9,西北西,11.1,96,0,0,0,0,0,0,1009.8,1023.9
110,2020-10-19T01:49:00,0.5,西北西,1.1,西北西,11.1,96.1,0,0,0,0,0,0,1009.8,1023.9
111,2020-10-19T01:50:00,0.6,西北西,1.1,西北西,11.2,96.2,0,0,0,0,0,0,1009.7,1023.8
112,2020-10-19T01:51:00,0.6,西北西,1.1,西北西,11.2,96.2,0,0,0,0,0,0,1009.7,1023.8
113,2020-10-19T01:52:00,0.6,西北西,1.1,西北西,11.2,96.2,0,0,0,0,0,0,1009.7,1023.8
114,2020-10-19T01:53:00,0.6,西北西,1.1,西北西,11.2,96.1,0,0,0,0,0,0,1009.7,1023.8
115,2020-10-19T01:54:00,0.6,西北西,1.1,西北西,11.1,96.1,0,0,0,0,0,0,1009.8,1023.9
116,2020-10-19T01:55:00,0.7,西北西,1.1,西北西,11.1,96.1,0,0,0,0,0,0,1009.8,1023.9
117,2020-10-19T01:56:00,0.7,西北西,1.1,西北西,11.1,96.1,0,0,0,0,0,0,1009.9,1024
118,2020-10-19T01:57:00,0.7,西北西,1.1,西北西,11.1,96.1,0,0,0,0,0,0,1009.9,1024
119,2020-10-19T01:58:00,0.7,西北西,1.1,西北西,11.3,96.3,0,0,0,0,0,0,1009.9,1024
120,2020-10-19T01:59:00,0.7,西北西,1.1,西北西,11.1,96.3,0,0,0,0,0,0,1009.9,1024
121,2020-10-19T02:00:00,0.6,西北西,1.1,西北西,11,96.1,0,0,0,0,0,0,1009.9,1024.1
122,2020-10-19T02:01:00,0.6,西北西,1.1,西北西,10.9,96,0,0,0,0,0,0,1009.9,1024.1
123,2020-10-19T02:02:00,0.5,西北西,1,西北西,11,96.1,0,0,0,0,0,0,1009.9,1024.1
124,2020-10-19T02:03:00,0.5,西北西,0.9,西,11,96.4,0,0,0,0,0,0,1009.9,1024.1
125,2020-10-19T02:04:00,0.5,西北西,0.9,西,11.1,96.4,0,0,0,0,0,0,1009.9,1024
126,2020-10-19T02:05:00,0.5,西北西,0.9,西,11.1,96.5,0,0,0,0,0,0,1009.9,1024
127,2020-10-19T02:06:00,0.5,西北西,0.9,西,11.1,96.5,0,0,0,0,0,0,1009.8,1023.9
128,2020-10-19T02:07:00,0.5,西北西,0.9,西,11,96.5,0,0,0,0,0,0,1009.8,1024
129,2020-10-19T02:08:00,0.5,西北西,1,西北西,11,96.5,0,0,0,0,0,0,1009.8,1024
130,2020-10-19T02:09:00,0.5,西北西,1,西北西,11.1,96.6,0,0,0,0,0,0,1009.8,1023.9
131,2020-10-19T02:10:00,0.5,西北西,1.1,西北西,11.1,96.7,0,0,0,0,0,0,1009.7,1023.8
132,2020-10-19T02:11:00,0.6,西北西,1.1,西北西,11.2,96.7,0,0,0,0,0,0,1009.7,1023.8
133,2020-10-19T02:12:00,0.7,西北西,1.1,西北西,11.2,96.8,0,0,0,0,0,0,1009.6,1023.7
134,2020-10-19T02:13:00,0.7,西北西,1.1,西北西,11.1,96.8,0,0,0,0,0,0,1009.5,1023.6
135,2020-10-19T02:14:00,0.8,西北西,1.1,西北西,11.2,96.8,0,0,0,0,0,0,1009.4,1023.5
136,2020-10-19T02:15:00,0.8,西北西,1.1,西北西,11.2,96.9,0,0,0,0,0,0,1009.4,1023.5
137,2020-10-19T02:16:00,0.8,西北西,1.1,西北西,11.2,96.8,0,0,0,0,0,0,1009.4,1023.5
138,2020-10-19T02:17:00,0.8,西北西,1.1,西北西,11.1,96.7,0,0,0,0,0,0,1009.4,1023.5
139,2020-10-19T02:18:00,0.8,西北西,1.1,西北西,11.2,96.7,0,0,0,0,0,0,1009.4,1023.5
140,2020-10-19T02:19:00,0.8,西北西,1.1,西北西,11.2,96.8,0,0,0,0,0,0,1009.5,1023.6
141,2020-10-19T02:20:00,0.8,西北西,1.1,北西,11.1,96.6,0,0,0,0,0,0,1009.4,1023.5
142,2020-10-19T02:21:00,0.8,西北西,1.2,西,11.1,96.6,0,0,0,0,0,0,1009.4,1023.5
143,2020-10-19T02:22:00,0.8,西北西,1.2,西,11,96.6,0,0,0,0,0,0,1009.4,1023.5
144,2020-10-19T02:23:00,0.8,西北西,1.4,西,11,96.6,0,0,0,0,0,0,1009.5,1023.6
145,2020-10-19T02:24:00,0.8,西,1.4,西,10.9,96.6,0,0,0,0,0,0,1009.5,1023.7
146,2020-10-19T02:25:00,0.9,西,1.5,西南西,11,96.6,0,0,0,0,0,0,1009.6,1023.7
147,2020-10-19T02:26:00,0.9,西,1.5,西南西,11,96.7,0,0,0,0,0,0,1009.6,1023.7
148,2020-10-19T02:27:00,0.9,西,1.5,西南西,10.9,96.7,0,0,0,0,0,0,1009.6,1023.8
149,2020-10-19T02:28:00,0.9,西,1.5,西南西,11,96.8,0,0,0,0,0,0,1009.6,1023.7
150,2020-10-19T02:29:00,0.9,西,1.5,西南西,11,96.8,0,0,0,0,0,0,1009.6,1023.7
151,2020-10-19T02:30:00,0.9,西,1.5,西南西,10.9,96.8,0,0,0,0,0,0,1009.6,1023.8
152,2020-10-19T02:31:00,0.9,西,1.5,西南西,11,96.8,0,0,0,0,0,0,1009.6,1023.7
153,2020-10-19T02:32:00,0.8,西,1.5,西南西,10.9,96.9,0,0,0,0,0,0,1009.7,1023.9
154,2020-10-19T02:33:00,0.8,西,1.5,西南西,11,96.9,0,0,0,0,0,0,1009.6,1023.7
155,2020-10-19T02:34:00,0.8,西北西,1.5,西南西,11,97,0,0,0,0,0,0,1009.6,1023.7
156,2020-10-19T02:35:00,0.7,西北西,1.4,西,11.1,97,0,0,0,0,0,0,1009.6,1023.7
157,2020-10-19T02:36:00,0.7,西北西,1.4,西,11.1,97.1,0,0,0,0,0,0,1009.6,1023.7
158,2020-10-19T02:37:00,0.7,西北西,1.4,西,11.1,97.1,0,0,0,0,0,0,1009.6,1023.7
159,2020-10-19T02:38:00,0.6,西北西,1.1,北西,11.1,97.1,0,0,0,0,0,0,1009.6,1023.7
160,2020-10-19T02:39:00,0.6,西北西,1.1,北西,11,96.9,0,0,0,0,0,0,1009.6,1023.7
161,2020-10-19T02:40:00,0.6,西北西,1.1,北西,11,97,0,0,0,0,0,0,1009.6,1023.7
162,2020-10-19T02:41:00,0.6,西北西,1.1,北西,11,97,0,0,0,0,0,0,1009.5,1023.6
163,2020-10-19T02:42:00,0.5,西北西,1.1,北西,11,97,0,0,0,0,0,0,1009.5,1023.6
164,2020-10-19T02:43:00,0.5,西北西,1,西北西,11,96.9,0,0,0,0,0,0,1009.5,1023.6
165,2020-10-19T02:44:00,0.5,西北西,1,西北西,11.1,97.1,0,0,0,0,0,0,1009.4,1023.5
166,2020-10-19T02:45:00,0.4,北西,1,西北西,11.2,97.2,0,0,0,0,0,0,1009.4,1023.5
167,2020-10-19T02:46:00,0.5,北西,1.6,北西,11.1,97.2,0,0,0,0,0,0,1009.4,1023.5
168,2020-10-19T02:47:00,0.5,北西,1.6,北西,11.1,97,0,0,0,0,0,0,1009.4,1023.5
169,2020-10-19T02:48:00,0.5,北西,1.6,北西,11.1,97.1,0,0,0,0,0,0,1009.4,1023.5
170,2020-10-19T02:49:00,0.5,北西,1.6,北西,11.1,97.1,0,0,0,0,0,0,1009.4,1023.5
171,2020-10-19T02:50:00,0.5,北北西,1.6,北西,11.1,97,0,0,0,0,0,0,1009.5,1023.6
172,2020-10-19T02:51:00,0.5,北北西,1.6,北西,11.1,97,0,0,0,0,0,0,1009.5,1023.6
173,2020-10-19T02:52:00,0.5,北北西,1.6,北西,11.2,97,0,0,0,0,0,0,1009.5,1023.6
174,2020-10-19T02:53:00,0.6,北西,1.6,北西,11.1,96.9,0,0,0,0,0,0,1009.5,1023.6
175,2020-10-19T02:54:00,0.6,北西,1.6,北西,11.1,96.8,0,0,0,0,0,0,1009.5,1023.6
176,2020-10-19T02:55:00,0.6,北西,1.6,北西,11.1,96.9,0,0,0,0,0,0,1009.5,1023.6
177,2020-10-19T02:56:00,0.5,北西,1.2,北西,11,96.7,0,0,0,0,0,0,1009.4,1023.5
178,2020-10-19T02:57:00,0.5,北西,1.2,北西,11.1,96.6,0,0,0,0,0,0,1009.4,1023.5
179,2020-10-19T02:58:00,0.4,西北西,1.2,北西,11.1,96.7,0,0,0,0,0,0,1009.4,1023.5
180,2020-10-19T02:59:00,0.4,西北西,1.2,北西,11.1,96.6,0,0,0,0,0,0,1009.4,1023.5
181,2020-10-19T03:00:00,0.3,西北西,1.1,北西,11.1,96.6,0,0,0,0,0,0,1009.4,1023.5
182,2020-10-19T03:01:00,0.3,西北西,1,西,11,96.5,0,0,0,0,0,0,1009.5,1023.6
183,2020-10-19T03:02:00,0.3,西北西,1,西,11,96.5,0,0,0,0,0,0,1009.5,1023.6
184,2020-10-19T03:03:00,0.3,西北西,1.1,西南西,10.9,96.5,0,0,0,0,0,0,1009.5,1023.7
185,2020-10-19T03:04:00,0.3,西,1.1,西南西,10.9,96.4,0,0,0,0,0,0,1009.5,1023.7
186,2020-10-19T03:05:00,0.3,西北西,1.1,西南西,11,96.5,0,0,0,0,0,0,1009.5,1023.6
187,2020-10-19T03:06:00,0.4,西北西,1.1,西南西,10.9,96.5,0,0,0,0,0,0,1009.5,1023.7
188,2020-10-19T03:07:00,0.4,西北西,1.1,西南西,11.1,96.6,0,0,0,0,0,0,1009.5,1023.6
189,2020-10-19T03:08:00,0.5,西北西,1.1,西南西,11.1,96.6,0,0,0,0,0,0,1009.5,1023.6
190,2020-10-19T03:09:00,0.6,西北西,1.1,西南西,11.1,96.6,0,0,0,0,0,0,1009.4,1023.5
191,2020-10-19T03:10:00,0.7,西,1.1,西南西,11.1,96.5,0,0,0,0,0,0,1009.4,1023.5
192,2020-10-19T03:11:00,0.7,西,1.1,西南西,11.1,96.5,0,0,0,0,0,0,1009.4,1023.5
193,2020-10-19T03:12:00,0.7,西,1.1,西南西,11,96.5,0,0,0,0,0,0,1009.4,1023.5
194,2020-10-19T03:13:00,0.7,西北西,1.1,西北西,11,96.5,0,0,0,0,0,0,1009.4,1023.5
195,2020-10-19T03:14:00,0.7,西北西,1.1,西北西,11.1,96.6,0,0,0,0,0,0,1009.4,1023.5
196,2020-10-19T03:15:00,0.7,西北西,1.1,西北西,11.1,96.6,0,0,0,0,0,0,1009.3,1023.4
197,2020-10-19T03:16:00,0.7,西北西,1.1,西北西,11,96.6,0,0,0,0,0,0,1009.3,1023.4
198,2020-10-19T03:17:00,0.7,西北西,1.1,西北西,11.1,96.5,0,0,0,0,0,0,1009.2,1023.3
199,2020-10-19T03:18:00,0.6,西北西,1.1,西北西,11,96.6,0,0,0,0,0,0,1009.3,1023.4
200,2020-10-19T03:19:00,0.6,西北西,1.3,西,11.1,96.5,0,0,0,0,0,0,1009.3,1023.4
201,2020-10-19T03:20:00,0.6,西北西,1.3,西,11,96.5,0,0,0,0,0,0,1009.3,1023.4
202,2020-10-19T03:21:00,0.6,西北西,1.3,西,11,96.4,0,0,0,0,0,0,1009.2,1023.3
203,2020-10-19T03:22:00,0.6,西北西,1.3,西,10.9,96.4,0,0,0,0,0,0,1009.2,1023.3
204,2020-10-19T03:23:00,0.7,西北西,1.3,西,11,96.5,0,0,0,0,0,0,1009.2,1023.3
205,2020-10-19T03:24:00,0.7,西,1.3,西,10.9,96.6,0,0,0,0,0,0,1009.2,1023.3
206,2020-10-19T03:25:00,0.7,西,1.3,西,11,96.6,0,0,0,0,0,0,1009.2,1023.3
207,2020-10-19T03:26:00,0.7,西北西,1.3,西,10.9,96.6,0,0,0,0,0,0,1009.2,1023.3
208,2020-10-19T03:27:00,0.7,西北西,1.3,西,10.9,96.5,0,0,0,0,0,0,1009.1,1023.2
209,2020-10-19T03:28:00,0.6,西北西,1.3,西,10.9,96.6,0,0,0,0,0,0,1009.1,1023.2
210,2020-10-19T03:29:00,0.6,西北西,1,西北西,10.9,96.7,0,0,0,0,0,0,1009.1,1023.2
211,2020-10-19T03:30:00,0.5,西北西,1,西北西,11,96.9,0,0,0,0,0,0,1009.1,1023.2
212,2020-10-19T03:31:00,0.4,西北西,1,西北西,10.8,96.8,0,0,0,0,0,0,1009.1,1023.3
213,2020-10-19T03:32:00,0.3,西北西,1,西北西,10.9,96.7,0,0,0,0,0,0,1009.1,1023.2
214,2020-10-19T03:33:00,0.3,西北西,0.9,西北西,11,96.9,0,0,0,0,0,0,1009.1,1023.2
215,2020-10-19T03:34:00,0.2,静穏,0.9,西北西,11,96.9,0,0,0,0,0,0,1009.1,1023.2
216,2020-10-19T03:35:00,0.2,静穏,0.7,西,11.1,97,0,0,0,0,0,0,1009.1,1023.2
217,2020-10-19T03:36:00,0.1,静穏,0.7,西,11.1,97.1,0,0,0,0,0,0,1009,1023.1
218,2020-10-19T03:37:00,0.1,静穏,0.7,西,11.1,97,0,0,0,0,0,0,1009,1023.1
219,2020-10-19T03:38:00,0.1,静穏,0.7,西,11,96.9,0,0,0,0,0,0,1009,1023.1
220,2020-10-19T03:39:00,0.2,静穏,0.8,北西,11.1,97,0,0,0,0,0,0,1009.1,1023.2
221,2020-10-19T03:40:00,0.2,静穏,1.3,北西,11.2,97.1,0,0,0,0,0,0,1009.1,1023.2
222,2020-10-19T03:41:00,0.3,北西,1.3,北西,11.3,97.2,0,0,0,0,0,0,1009,1023.1
223,2020-10-19T03:42:00,0.4,北西,1.3,北西,11.3,97.3,0,0,0,0,0,0,1009,1023.1
224,2020-10-19T03:43:00,0.5,北西,1.3,北西,11.3,97.1,0,0,0,0,0,0,1008.9,1023
225,2020-10-19T03:44:00,0.6,北西,1.3,北西,11.3,97.1,0,0,0,0,0,0,1008.9,1023
226,2020-10-19T03:45:00,0.6,北西,1.3,北西,11.3,96.9,0,0,0,0,0,0,1008.9,1023
227,2020-10-19T03:46:00,0.7,北西,1.3,北西,11.3,96.9,0,0,0,0,0,0,1008.9,1023
228,2020-10-19T03:47:00,0.8,北西,1.3,北西,11.2,96.7,0,0,0,0,0,0,1008.9,1023
229,2020-10-19T03:48:00,0.9,西北西,1.3,北西,11.2,96.7,0,0,0,0,0,0,1008.9,1023
230,2020-10-19T03:49:00,0.9,西北西,1.3,北西,11.1,96.6,0,0,0,0,0,0,1009,1023.1
231,2020-10-19T03:50:00,0.8,西北西,1.2,南西,10.9,96.1,0,0,0,0,0,0,1009,1023.1
232,2020-10-19T03:51:00,0.8,西北西,1.2,南西,10.8,96,0,0,0,0,0,0,1009,1023.2
233,2020-10-19T03:52:00,0.7,西,1.2,南西,10.9,96.1,0,0,0,0,0,0,1009,1023.1
234,2020-10-19T03:53:00,0.7,西,1.2,南西,10.8,96.3,0,0,0,0,0,0,1009.1,1023.3
235,2020-10-19T03:54:00,0.7,西,1.2,南西,11,96.6,0,0,0,0,0,0,1009.1,1023.2
236,2020-10-19T03:55:00,0.7,西,1.3,西北西,11.1,96.9,0,0,0,0,0,0,1009.2,1023.3
237,2020-10-19T03:56:00,0.7,西,1.8,西北西,11.2,97,0,0,0,0,0,0,1009.1,1023.2
238,2020-10-19T03:57:00,0.7,西,1.8,西北西,11.1,97,0,0,0,0,0,0,1009.1,1023.2
239,2020-10-19T03:58:00,0.7,西,1.8,西北西,11.2,96.9,0,0,0,0,0,0,1009.1,1023.2
240,2020-10-19T03:59:00,0.7,西,1.8,西北西,11.1,96.9,0,0,0,0,0,0,1009.2,1023.3
241,2020-10-19T04:00:00,0.8,西,1.8,西北西,11.2,96.9,0,0,0,0,0,0,1009.3,1023.4
242,2020-10-19T04:01:00,1,西北西,2.1,西,11.2,96.9,0,0,0,0,0,0,1009.3,1023.4
243,2020-10-19T04:02:00,1.1,西北西,2.2,西,11,96.6,0,0,0,0,0,0,1009.3,1023.4
244,2020-10-19T04:03:00,1.2,西北西,2.2,西,10.9,96.3,0,0,0,0,0,0,1009.3,1023.5
245,2020-10-19T04:04:00,1.3,西北西,2.2,西,10.9,96.3,0,0,0,0,0,0,1009.3,1023.5
246,2020-10-19T04:05:00,1.3,西,2.2,西,11,96.5,0,0,0,0,0,0,1009.2,1023.3
247,2020-10-19T04:06:00,1.3,西,2.2,西,10.9,96.6,0,0,0,0,0,0,1009.2,1023.3
248,2020-10-19T04:07:00,1.4,西,2.2,西,10.8,96.4,0,0,0,0,0,0,1009.1,1023.3
249,2020-10-19T04:08:00,1.4,西,2.2,西,10.8,96.4,0,0,0,0,0,0,1009.1,1023.3
250,2020-10-19T04:09:00,1.5,西,2.2,西,10.9,96.6,0,0,0,0,0,0,1009.1,1023.2
251,2020-10-19T04:10:00,1.4,西,2.2,西,10.9,96.7,0,0,0,0,0,0,1009.1,1023.2
252,2020-10-19T04:11:00,1.2,西,2.2,西,10.8,96.6,0,0,0,0,0,0,1009.2,1023.4
253,2020-10-19T04:12:00,1.1,西,2,西北西,10.9,96.7,0,0,0,0,0,0,1009.1,1023.2
254,2020-10-19T04:13:00,1.1,西,2,西北西,10.9,96.8,0,0,0,0,0,0,1009.2,1023.3
255,2020-10-19T04:14:00,1,西,2,西北西,10.9,96.7,0,0,0,0,0,0,1009.2,1023.3
256,2020-10-19T04:15:00,1,西,2,西北西,10.9,96.8,0,0,0,0,0,0,1009.2,1023.3
257,2020-10-19T04:16:00,0.9,西,2,西北西,10.9,96.9,0,0,0,0,0,0,1009.2,1023.3
258,2020-10-19T04:17:00,0.9,西,1.8,西,11,96.9,0,0,0,0,0,0,1009.2,1023.3
259,2020-10-19T04:18:00,0.9,西,1.7,西北西,11.1,96.9,0,0,0,0,0,0,1009.2,1023.3
260,2020-10-19T04:19:00,0.8,西,1.4,西北西,11.1,97.1,0,0,0,0,0,0,1009.2,1023.3
261,2020-10-19T04:20:00,0.9,西,1.4,西北西,11.2,97.2,0,0,0,0,0,0,1009.2,1023.3
262,2020-10-19T04:21:00,1,西,1.4,西北西,11.2,97.1,0,0,0,0,0,0,1009.2,1023.3
263,2020-10-19T04:22:00,1,西,1.4,西北西,11.1,96.9,0,0,0,0,0,0,1009.2,1023.3
264,2020-10-19T04:23:00,1,西,1.4,西北西,10.9,96.5,0,0,0,0,0,0,1009.2,1023.3
265,2020-10-19T04:24:00,1,西,1.4,西北西,10.9,96.4,0,0,0,0,0,0,1009.2,1023.3
266,2020-10-19T04:25:00,0.9,西,1.4,西北西,10.8,96.4,0,0,0,0,0,0,1009.3,1023.5
267,2020-10-19T04:26:00,0.9,西,1.4,西北西,10.8,96.5,0,0,0,0,0,0,1009.3,1023.5
268,2020-10-19T04:27:00,0.8,西,1.4,西北西,10.9,96.6,0,0,0,0,0,0,1009.3,1023.5
269,2020-10-19T04:28:00,0.7,西,1.4,西北西,11,96.7,0,0,0,0,0,0,1009.3,1023.4
270,2020-10-19T04:29:00,0.7,西南西,1.3,西北西,11.1,97,0,0,0,0,0,0,1009.4,1023.5
271,2020-10-19T04:30:00,0.6,西南西,1.2,西,11.1,97,0,0,0,0,0,0,1009.5,1023.6
272,2020-10-19T04:31:00,0.6,西南西,1.3,南南西,11,96.7,0,0,0,0,0,0,1009.5,1023.6
273,2020-10-19T04:32:00,0.6,南西,1.4,南南西,11,96.6,0,0,0,0,0,0,1009.5,1023.6
274,2020-10-19T04:33:00,0.6,南西,1.4,南南西,11,96.8,0,0,0,0,0,0,1009.5,1023.6
275,2020-10-19T04:34:00,0.6,南西,1.4,南南西,11.2,96.9,0,0,0,0,0,0,1009.5,1023.6
276,2020-10-19T04:35:00,0.6,南西,1.4,南南西,11.1,96.8,0,0,0,0,0,0,1009.5,1023.6
277,2020-10-19T04:36:00,0.6,南西,1.4,南南西,11.1,96.8,0,0,0,0,0,0,1009.4,1023.5
278,2020-10-19T04:37:00,0.7,南南西,1.4,南南西,11,96.5,0,0,0,0,0,0,1009.4,1023.5
279,2020-10-19T04:38:00,0.7,南南西,1.4,南南西,10.9,96.4,0,0,0,0,0,0,1009.4,1023.6
280,2020-10-19T04:39:00,0.7,南南西,1.4,南南西,11.1,96.6,0,0,0,0,0,0,1009.4,1023.5
281,2020-10-19T04:40:00,0.7,南南西,1.4,南南西,11.2,96.9,0,0,0,0,0,0,1009.5,1023.6
282,2020-10-19T04:41:00,0.7,南南西,1.4,南南西,11.1,96.7,0,0,0,0,0,0,1009.5,1023.6
283,2020-10-19T04:42:00,0.7,南南西,1.3,南西,11.1,96.5,0,0,0,0,0,0,1009.5,1023.6
284,2020-10-19T04:43:00,0.6,南南西,1.2,南南西,11.1,96.6,0,0,0,0,0,0,1009.5,1023.6
285,2020-10-19T04:44:00,0.5,南西,1.2,南南西,11.1,96.5,0,0,0,0,0,0,1009.6,1023.7
286,2020-10-19T04:45:00,0.5,南西,1.2,南南西,11.2,96.7,0,0,0,0,0,0,1009.7,1023.8
287,2020-10-19T04:46:00,0.5,南西,1.2,南南西,11.3,97,0,0,0,0,0,0,1009.7,1023.8
288,2020-10-19T04:47:00,0.5,西南西,1.2,南南西,11.3,96.8,0,0,0,0,0,0,1009.7,1023.8
289,2020-10-19T04:48:00,0.5,西南西,1.2,南南西,11.3,96.7,0,0,0,0,0,0,1009.7,1023.8
290,2020-10-19T04:49:00,0.4,西南西,1,西,11.3,96.7,0,0,0,0,0,0,1009.7,1023.8
291,2020-10-19T04:50:00,0.3,西,1,西,11.4,96.8,0,0,0,0,0,0,1009.7,1023.8
292,2020-10-19T04:51:00,0.3,西,1,西,11.4,96.8,0,0,0,0,0,0,1009.7,1023.8
293,2020-10-19T04:52:00,0.2,静穏,1,西,11.5,96.7,0,0,0,0,0,0,1009.7,1023.8
294,2020-10-19T04:53:00,0.2,静穏,1,西,11.3,96.6,0,0,0,0,0,0,1009.7,1023.8
295,2020-10-19T04:54:00,0.2,静穏,1,西,11.3,96.3,0,0,0,0,0,0,1009.8,1023.9
296,2020-10-19T04:55:00,0.2,静穏,1,西,11.4,96.4,0,0,0,0,0,0,1009.8,1023.9
297,2020-10-19T04:56:00,0.2,静穏,1,西,11.5,96.3,0,0,0,0,0,0,1009.8,1023.9
298,2020-10-19T04:57:00,0.1,静穏,0.8,西南西,11.5,96.4,0,0,0,0,0,0,1009.8,1023.9
299,2020-10-19T04:58:00,0.1,静穏,0.8,西南西,11.5,96.3,0,0,0,0,0,0,1009.8,1023.9
300,2020-10-19T04:59:00,0.1,静穏,0.8,西南西,11.5,96.1,0,0,0,0,0,0,1009.8,1023.9
301,2020-10-19T05:00:00,0.1,静穏,0.8,西南西,11.4,95.9,0,0,0,0,0,0,1009.9,1024
302,2020-10-19T05:01:00,0.1,静穏,0.8,西南西,11.4,95.8,0,0,0,0,0,0,1009.9,1024
303,2020-10-19T05:02:00,0.1,静穏,0.8,西南西,11.4,95.9,0,0,0,0,0,0,1010,1024.1
304,2020-10-19T05:03:00,0.2,静穏,0.8,西南西,11.4,95.7,0,0,0,0,0,0,1010,1024.1
305,2020-10-19T05:04:00,0.2,静穏,0.8,西南西,11.4,95.7,0,0,0,0,0,0,1010,1024.1
306,2020-10-19T05:05:00,0.3,西北西,0.8,西南西,11.3,95.7,0,0,0,0,0,0,1010,1024.1
307,2020-10-19T05:06:00,0.3,西北西,0.8,西,11.3,95.7,0,0,0,0,0,0,1010,1024.1
308,2020-10-19T05:07:00,0.3,西北西,0.8,西,11.3,95.8,0,0,0,0,0,0,1010,1024.1
309,2020-10-19T05:08:00,0.3,西北西,0.8,西,11.3,96,0,0,0,0,0,0,1010,1024.1
310,2020-10-19T05:09:00,0.3,西,0.8,西,11.4,95.9,0,0,0,0,0,0,1010,1024.1
311,2020-10-19T05:10:00,0.3,西,0.8,西,11.6,96.1,0,0,0,0,0,0,1010,1024.1
312,2020-10-19T05:11:00,0.3,西南西,0.8,西,11.7,96.2,0,0,0,0,0,0,1010,1024.1
313,2020-10-19T05:12:00,0.3,西南西,0.8,西,11.5,96.1,0,0,0,0,0,0,1009.9,1024
314,2020-10-19T05:13:00,0.3,南西,0.8,西,11.4,95.6,0,0,0,0,0,0,1009.9,1024
315,2020-10-19T05:14:00,0.2,静穏,0.8,西,11.5,95.7,0,0,0,0,0,0,1009.9,1024
316,2020-10-19T05:15:00,0.2,静穏,0.7,南南東,11.4,95.7,0,0,0,0,0,0,1009.9,1024
317,2020-10-19T05:16:00,0.2,静穏,0.8,西北西,11.4,95.6,0,0,0,0,0,0,1009.9,1024
318,2020-10-19T05:17:00,0.3,南西,1.1,西南西,11.4,95.7,0,0,0,0,0,0,1010,1024.1
319,2020-10-19T05:18:00,0.3,西南西,1.3,西北西,11.5,95.7,0,0,0,0,0,0,1010,1024.1
320,2020-10-19T05:19:00,0.4,西,1.3,西北西,11.4,95.8,0,0,0,0,0,0,1010,1024.1
321,2020-10-19T05:20:00,0.5,西,1.3,西北西,11.5,95.8,0,0,0,0,0,0,1010,1024.1
322,2020-10-19T05:21:00,0.6,西北西,1.3,西北西,11.5,95.9,0,0,0,0,0,0,1010.1,1024.2
323,2020-10-19T05:22:00,0.6,西北西,1.3,西北西,11.7,96,0,0,0,0,0,0,1010,1024.1
324,2020-10-19T05:23:00,0.6,西北西,1.3,西北西,11.5,96,0,0,0,0,0,0,1010,1024.1
325,2020-10-19T05:24:00,0.6,西北西,1.3,西北西,11.3,95.5,0,0,0,0,0,0,1009.9,1024
326,2020-10-19T05:25:00,0.6,西,1.3,西北西,11.2,95.3,0,0,0,0,0,0,1009.9,1024